Meadville, PA

12:02 PM EST on December 07, 2019 (GMT -0500)
Port Meadville

Weather History for KGKJ - October, 2019

Change the Weather History Date:

Monday, October 21, 2019

  Actual Average Record
Temperature  
Mean Temperature 58 °F -  
Max Temperature 69 °F 56 °F 79 °F (1963)
Min Temperature 46 °F 37 °F 18 °F (1952)
Degree Days  
Heating Degree Days 8    
Growing Degree Days 8 (Base 50)    
Moisture  
Dew Point 43 °F    
Average Humidity 63    
Maximum Humidity 93    
Minimum Humidity 35    
Precipitation  
Precipitation 0.00 in - - ()
Sea Level Pressure  
Sea Level Pressure 29.95 in    
Wind  
Wind Speed 4 mph ()    
Max Wind Speed 9 mph    
Max Gust Speed 18 mph    
Visibility 10.0 miles    
Events      
Averages and records for this station are not official NWS values.
T = Trace of Precipitation, MM = Missing Value Source: Averaged Metar Reports

Daily Weather History Graph

Daily Weather History Graph

Search for Another Location

Airport or City:

Astronomy

Oct. 21, 2019 Rise Set
Actual Time 7:39 AM EDT 6:30 PM EDT
Civil Twilight 7:11 AM EDT 6:58 PM EDT
Nautical Twilight 6:38 AM EDT 7:31 PM EDT
Astronomical Twilight 6:06 AM EDT 8:03 PM EDT
Moon No Moon Rise 2:59 PM EDT (10/21)
Length of Visible Light 11h 47m
Length of Day
10h 51m
Waning Gibbous, 48% of the Moon is Illuminated
Oct 21
Waning Gibbous
Oct 27
New
Nov 4
First Quarter
Nov 12
Full
Nov 19
Last Quarter

Hourly Weather History & Observations

Time (EDT) Temp. Windchill Dew Point Humidity Pressure Visibility Wind Dir Wind Speed Gust Speed Precip Events Conditions
12:53 AM 50.0 °F - 45.0 °F 83% 30.01 in 10.0 mi SE 3.5 mph - N/A   Overcast
1:53 AM 48.9 °F - 44.1 °F 83% 30.01 in 10.0 mi Calm Calm - N/A   Clear
2:53 AM 46.9 °F - 43.0 °F 86% 30.01 in 10.0 mi Calm Calm - N/A   Clear
3:53 AM 50.0 °F - 45.0 °F 83% 30.00 in 10.0 mi ESE 4.6 mph - N/A   Clear
4:53 AM 48.9 °F - 45.0 °F 86% 30.02 in 10.0 mi ESE 5.8 mph - N/A   Clear
5:53 AM 48.0 °F - 45.0 °F 89% 30.01 in 10.0 mi Variable 3.5 mph - N/A   Clear
6:53 AM 46.0 °F 44.8 °F 44.1 °F 93% 30.04 in 10.0 mi Variable 3.5 mph - N/A   Clear
7:53 AM 48.0 °F - 44.1 °F 86% 30.03 in 10.0 mi Variable 3.5 mph - N/A   Clear
8:53 AM 51.1 °F - 46.0 °F 83% 30.04 in 10.0 mi Variable 3.5 mph - N/A   Clear
9:53 AM 55.0 °F - 46.9 °F 74% 30.03 in 10.0 mi ESE 4.6 mph - N/A   Clear
10:53 AM 59.0 °F - 46.0 °F 62% 30.01 in 10.0 mi East 8.1 mph - N/A   Clear
11:53 AM 61.0 °F - 42.1 °F 50% 30.00 in 10.0 mi SE 8.1 mph - N/A   Clear
12:53 PM 64.9 °F - 41.0 °F 42% 29.96 in 10.0 mi ESE 9.2 mph 18.4 mph N/A   Clear
1:53 PM 68.0 °F - 42.1 °F 39% 29.93 in 10.0 mi East 8.1 mph 18.4 mph N/A   Clear
2:53 PM 69.1 °F - 41.0 °F 36% 29.89 in 10.0 mi Variable 4.6 mph - N/A   Clear
3:53 PM 69.1 °F - 39.9 °F 35% 29.88 in 10.0 mi Variable 5.8 mph - N/A   Clear
4:53 PM 66.0 °F - 43.0 °F 43% 29.86 in 10.0 mi ESE 9.2 mph - N/A   Clear
5:53 PM 64.9 °F - 41.0 °F 42% 29.86 in 10.0 mi Variable 5.8 mph - N/A   Scattered Clouds
6:53 PM 64.0 °F - 41.0 °F 43% 29.86 in 10.0 mi Variable 6.9 mph - N/A   Partly Cloudy
7:53 PM 63.0 °F - 41.0 °F 45% 29.84 in 10.0 mi Variable 5.8 mph - N/A   Partly Cloudy
8:53 PM 62.1 °F - 42.1 °F 48% 29.83 in 10.0 mi Variable 6.9 mph - N/A   Clear
9:53 PM 61.0 °F - 42.1 °F 50% 29.82 in 10.0 mi Variable 4.6 mph - N/A   Mostly Cloudy